Location: Banksville Park
(38.5557°N, 75.1182°W)
Time: 02:41:48
(UTC+00:00)

OBJECT-B - Pass Details

Date: 19 September 2020
Orbit: 421 x 433 km, 97.0° (Epoch: 09 October)

Event Time Altitude Azimuth Distance (km) Brightness Sun altitude
Exits shadow 01:14:13 16° 352° (N) 1,208 3.4 -25.7°
Drops below altitude 10° 01:14:56 10° 351° (N) 1,515 3.9 -25.8°
Sets 01:16:57 0° 350° (N) 2,386 5.0 -26.2°
